EN

Hourly Weather Bolshoe Gorodische

Today, 28 October, Wednesday

Time Temperature Precipitation Wind Pressure Humidity
00:00 +10°C° 0 mm 3 mps 746 mmHg 93%
01:00 +10°C° 0 mm 3 mps 746 mmHg 94%
02:00 +10°C° 0 mm 3 mps 746 mmHg 94%
03:00 +9°C° 0 mm 3 mps 746 mmHg 95%
04:00 +9°C° 0 mm 3 mps 746 mmHg 95%
05:00 +9°C° 0 mm 3 mps 745 mmHg 95%
06:00 +9°C° 0 mm 2 mps 746 mmHg 95%
07:00 +9°C° 0 mm 2 mps 746 mmHg 96%
08:00 +8°C° 0 mm 2 mps 746 mmHg 96%
09:00 +10°C° 0 mm 2 mps 747 mmHg 90%
10:00 +11°C° 0 mm 3 mps 747 mmHg 84%
11:00 +13°C° 0 mm 3 mps 747 mmHg 78%
12:00 +14°C° 0 mm 3 mps 747 mmHg 75%
13:00 +14°C° 0 mm 3 mps 746 mmHg 72%
14:00 +16°C° 0 mm 3 mps 746 mmHg 70%
15:00 +14°C° 0 mm 3 mps 746 mmHg 76%
16:00 +13°C° 0 mm 3 mps 746 mmHg 82%
17:00 +13°C° 0 mm 2 mps 746 mmHg 88%
18:00 +12°C° 0 mm 2 mps 746 mmHg 90%
19:00 +12°C° 0 mm 2 mps 746 mmHg 91%
20:00 +11°C° 0 mm 3 mps 746 mmHg 93%
21:00 +10°C° 0 mm 2 mps 746 mmHg 94%
22:00 +10°C° 0 mm 2 mps 746 mmHg 94%
23:00 +10°C° 0 mm 2 mps 746 mmHg 94%

Tomorrow, 29 October, Thursday

Time Temperature Precipitation Wind Pressure Humidity
00:00 +9°C° 0 mm 2 mps 746 mmHg 95%
01:00 +9°C° 0 mm 2 mps 746 mmHg 95%
02:00 +9°C° 0 mm 2 mps 746 mmHg 96%
03:00 +9°C° 0 mm 2 mps 745 mmHg 96%
04:00 +9°C° 0 mm 2 mps 745 mmHg 96%
05:00 +8°C° 0 mm 2 mps 745 mmHg 96%
06:00 +8°C° 0 mm 2 mps 745 mmHg 96%
07:00 +8°C° 0 mm 2 mps 745 mmHg 96%
08:00 +8°C° 0 mm 2 mps 745 mmHg 97%
09:00 +9°C° 0 mm 2 mps 745 mmHg 92%
10:00 +12°C° 0 mm 2 mps 745 mmHg 88%
11:00 +13°C° 0 mm 2 mps 745 mmHg 83%
12:00 +13°C° 0 mm 2 mps 745 mmHg 81%
13:00 +13°C° 0 mm 2 mps 744 mmHg 78%
14:00 +14°C° 0 mm 2 mps 744 mmHg 76%
15:00 +13°C° 0 mm 2 mps 744 mmHg 78%
16:00 +12°C° 0 mm 2 mps 744 mmHg 81%
17:00 +11°C° 0 mm 1 mps 744 mmHg 84%
18:00 +11°C° 0 mm 1 mps 744 mmHg 85%
19:00 +10°C° 0 mm 1 mps 744 mmHg 86%
20:00 +10°C° 0 mm 1 mps 744 mmHg 87%
21:00 +10°C° 0 mm 1 mps 744 mmHg 87%
22:00 +9°C° 0 mm 1 mps 744 mmHg 88%
23:00 +9°C° 0 mm 1 mps 744 mmHg 88%

Day after tomorrow, 30 October, Friday

Time Temperature Precipitation Wind Pressure Humidity
00:00 +9°C° 0 mm 1 mps 744 mmHg 88%
01:00 +9°C° 0 mm 1 mps 744 mmHg 89%
02:00 +9°C° 0 mm 1 mps 743 mmHg 89%
03:00 +9°C° 0 mm 1 mps 744 mmHg 89%
04:00 +9°C° 0 mm 1 mps 744 mmHg 88%
05:00 +9°C° 0 mm 1 mps 744 mmHg 88%
06:00 +9°C° 0.1 mm 1 mps 744 mmHg 89%
07:00 +9°C° 0.1 mm 1 mps 744 mmHg 90%
08:00 +9°C° 0.1 mm 1 mps 745 mmHg 91%
09:00 +10°C° 0.1 mm 1 mps 745 mmHg 89%
10:00 +10°C° 0.1 mm 1 mps 745 mmHg 87%
11:00 +11°C° 0.1 mm 1 mps 745 mmHg 85%
12:00 +10°C° 0.2 mm 2 mps 745 mmHg 86%
13:00 +9°C° 0.2 mm 3 mps 745 mmHg 86%
14:00 +9°C° 0.2 mm 3 mps 745 mmHg 86%
15:00 +9°C° 0.2 mm 3 mps 745 mmHg 87%
16:00 +9°C° 0.2 mm 3 mps 746 mmHg 87%
17:00 +8°C° 0.2 mm 3 mps 746 mmHg 88%
18:00 +8°C° 0.1 mm 3 mps 746 mmHg 88%
19:00 +8°C° 0.1 mm 3 mps 746 mmHg 88%
20:00 +8°C° 0.1 mm 3 mps 746 mmHg 88%
21:00 +7°C° 0 mm 3 mps 746 mmHg 90%
22:00 +7°C° 0 mm 3 mps 746 mmHg 91%
23:00 +5°C° 0 mm 3 mps 746 mmHg 93%

31 October, Saturday

Time Temperature Precipitation Wind Pressure Humidity
00:00 +5°C° 0 mm 3 mps 747 mmHg 93%
01:00 +5°C° 0 mm 3 mps 747 mmHg 94%
02:00 +4°C° 0 mm 3 mps 747 mmHg 94%
03:00 +4°C° 0 mm 3 mps 747 mmHg 95%
04:00 +4°C° 0 mm 3 mps 748 mmHg 95%
05:00 +4°C° 0 mm 3 mps 748 mmHg 95%
06:00 +4°C° 0 mm 3 mps 748 mmHg 95%
07:00 +4°C° 0 mm 3 mps 749 mmHg 95%
08:00 +4°C° 0 mm 3 mps 749 mmHg 96%
09:00 +5°C° 0 mm 4 mps 750 mmHg 90%
10:00 +6°C° 0 mm 4 mps 750 mmHg 85%
11:00 +7°C° 0 mm 4 mps 751 mmHg 80%
12:00 +8°C° 0 mm 4 mps 751 mmHg 78%
13:00 +8°C° 0 mm 4 mps 751 mmHg 75%
14:00 +10°C° 0 mm 4 mps 751 mmHg 73%
15:00 +8°C° 0 mm 4 mps 752 mmHg 78%
16:00 +8°C° 0 mm 3 mps 752 mmHg 83%
17:00 +7°C° 0 mm 3 mps 752 mmHg 88%
18:00 +6°C° 0 mm 2 mps 753 mmHg 90%
19:00 +6°C° 0 mm 2 mps 753 mmHg 91%
20:00 +5°C° 0 mm 2 mps 754 mmHg 93%
21:00 +5°C° 0 mm 2 mps 754 mmHg 93%
22:00 +5°C° 0 mm 2 mps 754 mmHg 93%
23:00 +4°C° 0 mm 2 mps 754 mmHg 93%

1 November, Sunday

Time Temperature Precipitation Wind Pressure Humidity
00:00 +4°C° 0 mm 2 mps 754 mmHg 93%
01:00 +4°C° 0 mm 2 mps 754 mmHg 93%
02:00 +5°C° 0 mm 1 mps 754 mmHg 93%
03:00 +4°C° 0 mm 1 mps 754 mmHg 93%
04:00 +4°C° 0 mm 1 mps 754 mmHg 93%
05:00 +4°C° 0 mm 1 mps 754 mmHg 93%
06:00 +4°C° 0 mm 1 mps 755 mmHg 93%
07:00 +4°C° 0 mm 1 mps 755 mmHg 93%
08:00 +4°C° 0 mm 1 mps 755 mmHg 93%
09:00 +5°C° 0 mm 1 mps 755 mmHg 88%
10:00 +7°C° 0 mm 1 mps 755 mmHg 82%
11:00 +8°C° 0 mm 1 mps 755 mmHg 77%
12:00 +9°C° 0 mm 1 mps 755 mmHg 74%
13:00 +9°C° 0 mm 1 mps 754 mmHg 72%
14:00 +10°C° 0 mm 1 mps 754 mmHg 69%
15:00 +8°C° 0 mm 2 mps 754 mmHg 76%
16:00 +6°C° 0 mm 2 mps 754 mmHg 82%
17:00 +5°C° 0 mm 2 mps 754 mmHg 88%
18:00 +5°C° 0 mm 2 mps 754 mmHg 90%
19:00 +4°C° 0 mm 2 mps 754 mmHg 92%
20:00 +3°C° 0 mm 2 mps 754 mmHg 95%
21:00 +3°C° 0 mm 2 mps 754 mmHg 95%
22:00 +3°C° 0 mm 2 mps 754 mmHg 95%
23:00 +3°C° 0 mm 2 mps 754 mmHg 96%

2 November, Monday

Time Temperature Precipitation Wind Pressure Humidity
00:00 +3°C° 0 mm 2 mps 754 mmHg 96%
01:00 +3°C° 0 mm 2 mps 754 mmHg 97%
02:00 +2°C° 0 mm 2 mps 754 mmHg 97%
03:00 +1°C° 0 mm 3 mps 753 mmHg 97%
04:00 +1°C° 0 mm 3 mps 753 mmHg 97%
05:00 +1°C° 0 mm 3 mps 753 mmHg 97%
06:00 +2°C° 0 mm 3 mps 753 mmHg 97%
07:00 +2°C° 0 mm 3 mps 753 mmHg 97%
08:00 +3°C° 0 mm 2 mps 753 mmHg 96%
09:00 +3°C° 0 mm 3 mps 753 mmHg 91%
10:00 +5°C° 0 mm 3 mps 753 mmHg 85%
11:00 +6°C° 0 mm 4 mps 753 mmHg 79%
12:00 +7°C° 0 mm 4 mps 753 mmHg 76%
13:00 +8°C° 0 mm 4 mps 753 mmHg 73%
14:00 +9°C° 0 mm 5 mps 753 mmHg 71%
15:00 +8°C° 0 mm 4 mps 752 mmHg 76%
16:00 +7°C° 0 mm 4 mps 752 mmHg 81%
17:00 +7°C° 0 mm 3 mps 752 mmHg 86%
18:00 +5°C° 0 mm 3 mps 752 mmHg 87%
19:00 +5°C° 0 mm 3 mps 752 mmHg 88%
20:00 +5°C° 0 mm 3 mps 753 mmHg 90%
21:00 +5°C° 0 mm 3 mps 753 mmHg 90%
22:00 +5°C° 0 mm 3 mps 753 mmHg 91%
23:00 +5°C° 0 mm 3 mps 753 mmHg 91%
Show more